Location: ???????
(56.2167°N, 38.0500°E)
Time: 04:16:48
(UTC+00:00)

Okean 1 - Pass Details

Date: 19 May 2025
Orbit: 477 x 498 km, 82.5° (Epoch: 19 June)

Event Time Altitude Azimuth Distance (km) Brightness Sun altitude
Exits shadow 20:08:16 - 212° (SSW) 1,834 5.6 -12.1°
Reaches altitude 10° 20:08:39 10° 214° (SW) 1,684 5.4 -12.2°
Maximum altitude 20:12:12 44° 288° (WNW) 685 4.1 -12.3°
Drops below altitude 10° 20:15:45 10° 2° (N) 1,684 7.1 -12.5°
Sets 20:17:55 0° 9° (N) 2,566 8.0 -12.5°
